Simultaneous Nadir Overpasses (SNOs) Predictions

Prediction of SNOs between AQUA and GOES-15 Satellite Orbit:

Table of predicted SNOs for the next 14.0 days since TLE Epoch: 2/4/2023
Index Date Time (AQUA) AQUA Lat,Lon GOES-15 Lat,Lon Distance(km) Time Diff (sec)
1 02/04/2023 10:18:36 0.12,-128.51 0.05,-128.29 25.83 80
2 02/06/2023 10:05:22 -0.56,-125.28 0.06,-128.28 340.74 80
3 02/06/2023 22:26:30 -0.51,-130.41 -0.06,-128.26 244.33 80
4 02/08/2023 22:13:15 0.15,-127.17 -0.06,-128.25 121.98 80
5 02/09/2023 10:34:14 0.94,-132.26 0.06,-128.27 453.98 80
6 02/10/2023 22:00:00 0.85,-123.94 -0.06,-128.24 488.08 80
7 02/11/2023 10:20:59 0.24,-129.03 0.06,-128.26 87.83 80
8 02/13/2023 10:07:43 -0.43,-125.79 0.07,-128.24 277.80 80
9 02/13/2023 22:28:51 -0.61,-130.92 -0.07,-128.21 307.06 80
10 02/15/2023 22:15:34 0.04,-127.68 -0.07,-128.18 57.59 80
11 02/17/2023 22:02:17 0.72,-124.44 -0.08,-128.14 421.76 80
